FENGYUN 1C DEB, 30054

Orbit data source: Space-Track

FENGYUN 1C DEB, 30054 is space debris in SSO originally from a launch on Mon, 10 May 1999 UTC launched from the Taiyaun Space Center, China (TSC). Fengyun 1C debris stems from the Chinese weather satellite Fengyun-1C, which was intentionally destroyed by a Chinese anti-satellite missile in 2007. This event dramatically increased the amount of space debris, with thousands of trackable fragments posing hazards to satellites and human spaceflight. The Fengyun 1C debris cloud has become a focal point in discussions about space sustainability and the need for international regulations to prevent the creation of new debris.

Loading next visibility...
Identifier
30054, 1999-025PF
Orbit
SSO
Country
Flag of CNCN / PRC
Related business
Manufacturer
Unknown
Mission
Spacecraft
Bus & Motor
Unknown
Mass
Unknown
Launch date (UTC)
1999-05-10 (27 years ago)
Launch vehicle
Unknown
Launch site
Taiyaun Space Center, China (TSC)
Object type
Payload
Rocket body
Debris
Shape & HBR
Unknown shape, 0.1 m
Radar Cross Section
Medium (>0.1 m² and <1 m²)

Expand to show TLE details & history
Last TLE update: 1 week ago

TLE from 1 week ago
0 FENGYUN 1C DEB
1 30054U 99025PF  26154.66235005  .00000401  00000-0  39013-3 0  9996
2 30054  99.3474 187.3780 0274259 275.3810 212.0600 13.70056263967162
Epoch: 2026-06-03T15:53Z
TLE epoch observation values (Epoch: 2026-06-03T15:53:47.044Z)
Latitude
53.2346°
Longitude
-110.52379°
Altitude
1,181.013 km
Speed
7.182 km/s
True Right ascension
01h 20m 09s
True Declination
53° 04' 44"
Sunlit
Object was in daylight at epoch
Visualization orbit readout
Latitude
Unknown
Longitude
Unknown
Altitude
Unknown
Speed
Unknown
Apparent Right ascension
Unknown
Apparent Declination
Unknown
Sunlit
N/A
Visualization observer readout
Local Sidereal Time
01:59:58
Azimuth
Unknown
Elevation
Unknown
Doppler factor
Unknown
Orbital elements
Apogee altitude
1,198.882 km
Perigee altitude
794.363 km
Semi-major axis
7,374.76 km
Eccentricity
0.02743
Inclination
99.3474°
RAAN
187.378°
Arg. of periapsis
275.381°
True anomaly
210.43916°
Mean anomaly
212.06°
Eccentric anomaly
211.24492°
Mean motion
3.42706 °/min
Orbital period
105.05 mins
BSTAR
0.00039013
Loading maneuver chart data...
Computing Atmospheric mass density...
Loading historical data...
Loading historical data...
Loading historical data...
Loading historical data...
Loading historical data...
Loading historical data...
Loading historical data...

Documentation

Showing up to 5 results
|